This is the latest recevied weather packets stored in our database for station/object KQ4LLM. If no packets are shown the sender has not sent any weather packets the latest 10 day(s).
| Time | Temp. | Humidity | Pressure | Rain* | Wind** | Luminosity | Snow |
|---|---|---|---|---|---|---|---|
| 1788117883 | 30.56° C | 60% | - | 0 mm | - | - | - |
| 1788117578 | 30° C | 61% | - | 0 mm | - | - | - |
| 1788117278 | 30.56° C | 61% | - | 0 mm | - | - | - |
| 1788116974 | 31.11° C | 58% | - | 0 mm | - | - | - |
| 1788116669 | 30° C | 60% | - | 0 mm | - | - | - |
| 1788116368 | 30° C | 60% | - | 0 mm | - | - | - |
| 1788116064 | 30° C | 60% | - | 0 mm | - | - | - |
| 1788115759 | 30° C | 61% | - | 0 mm | - | - | - |
| 1788115457 | 29.44° C | 63% | - | 0 mm | - | - | - |
| 1788115153 | 29.44° C | 64% | - | 0 mm | - | - | - |
| 1788114852 | 29.44° C | 64% | - | 0 mm | - | - | - |
| 1788114548 | 30° C | 64% | - | 0 mm | - | - | - |
| 1788114243 | 28.89° C | 66% | - | 0 mm | - | - | - |
| 1788113939 | 28.33° C | 67% | - | 0 mm | - | - | - |
| 1788113634 | 27.78° C | 70% | - | 0 mm | - | - | - |
| 1788113329 | 28.33° C | 71% | - | 0 mm | - | - | - |
| 1788113022 | 27.78° C | 71% | - | 0 mm | - | - | - |
| 1788112722 | 28.33° C | 70% | - | 0 mm | - | - | - |
| 1788112416 | 28.89° C | 69% | - | 0 mm | - | - | - |
| 1788112112 | 28.33° C | 71% | - | 0 mm | - | - | - |
| 1788111808 | 28.89° C | 71% | - | 0 mm | - | - | - |
| 1788111507 | 28.33° C | 71% | - | 0 mm | - | - | - |
| 1788111202 | 28.89° C | 71% | - | 0 mm | - | - | - |
| 1788110899 | 28.33° C | 71% | - | 0 mm | - | - | - |
| 1788110595 | 28.33° C | 72% | - | 0 mm | - | - | - |
* Rain latest hour (hover to see other rain measurements)
** Current wind speed in m/s (hover to see current wind gust speed)